Regional Weather Roundup
Issued by NWS Jackson, KY

Home | Current Version | Previous Version | Text Only | Print | Product List | Glossary Off
Versions: 1 2 3 4 5 6 7 8 9 10 11 12 13 14 15 16 17 18 19 20 21 22 23 24 25 26 27 28

000
ASUS43 KJKL 301910
RWRJKL

EAST KENTUCKY HOURLY WEATHER ROUNDUP
NATIONAL WEATHER SERVICE JACKSON KY
300 PM EDT TUE AUG 30 2016

NOTE: "FAIR" INDICATES FEW OR NO CLOUDS BELOW 12,000 FEET WITH
NO SIGNIFICANT WEATHER AND/OR OBSTRUCTIONS TO VISIBILITY.

* THESE REPORTS ARE NOT UNDER NWS QUALITY CONTROL AND MAY NOT
  REPORT WEATHER SUCH AS PRECIPITATION AND FOG.

KYZ079-080-083-085-087-088-110-112-115-119-120-302000
...EASTERN KENTUCKY...

CITY           SKY/WX    TMP DP  RH WIND       PRES   REMARKS
JACKSON        SUNNY     87  71  58 CALM      30.11F HX  93
LONDON         SUNNY     88  66  48 VRB5      30.11F HX  90
SOMERSET*      MOSUNNY   86  68  54 CALM      30.10F
MONTICELLO*    MOSUNNY  N/A N/A N/A VRB5      30.10F
WILLIAMSBURG*  MOCLDY    90  70  51 NE5       30.10F HX  95
MIDDLESBORO*   PTSUNNY   89  67  49 SW7       30.10F HX  92
HARLAN APT*    CLOUDY    79  68  69 N5        30.13S
PIKE CO APT*     N/A     87  71  59 NE8       30.11F HX  92
BIG SANDY APT* CLEAR     89  67  48 CALM      30.11F HX  91
MOREHEAD APT*  CLEAR     88  59  37 CALM      30.13F
ASHLAND*       SUNNY     91  64  40 CALM      30.07F HX  93
$$

KYZ035-036-041-042-044-050-067-078-099-302000
...CENTRAL KENTUCKY...

CITY           SKY/WX    TMP DP  RH WIND       PRES   REMARKS
MT STERLING*   SUNNY     90  63  40 N6        30.13F HX  90
FLEMING/MASON* SUNNY     88  62  40 SW3       30.12F
DANVILLE*      SUNNY     88  70  55 CALM      30.11F HX  92
LEXINGTON      PTSUNNY   89  66  46 CALM      30.11F HX  91
FRANKFORT      MOSUNNY   90  66  45 N5        30.10F HX  92
LOUISVILLE     MOSUNNY   91  67  44 NE6       30.08F HX  94
LEBANON*         N/A     90  68  48 CALM      30.10F HX  93
GLASGOW*       SUNNY     91  70  51 N3        30.08F HX  96
BOWLING GREEN  MOSUNNY   91  72  53 N3        30.07F HX  98
$$

KYZ091>093-OHZ055-061-077-WVZ005-015-034-035-042-302000
...SOUTHERN OHIO/WEST VIRGINIA...

CITY           SKY/WX    TMP DP  RH WIND       PRES   REMARKS
COVINGTON      MOSUNNY   88  64  44 E8        30.12F
COLUMBUS       MOSUNNY   85  61  44 E3        30.12F
DAYTON         CLOUDY    85  64  49 CALM      30.14F
WILMINGTON     SUNNY     84  64  50 SE3       30.13F
HUNTINGTON     MOSUNNY   90  62  39 VRB5      30.09F HX  90
CHARLESTON     MOSUNNY   88  65  46 VRB5      30.09F HX  90
PINEVILLE*     CLOUDY    81  70  68 MISG      30.18F
BECKLEY        CLOUDY    78  66  66 W7        30.19F
BLUEFIELD      MOSUNNY   80  64  58 S6        30.21F
LOGAN CO APT*    N/A     86  70  58 VRB3      30.12F HX  90
$$

VAZ002-007-008-TNZ017-027-036-066-071-302000
...SOUTHWEST VIRGINIA/EAST TENNESSEE...

CITY           SKY/WX    TMP DP  RH WIND       PRES   REMARKS
WISE*          SUNNY     86  52  30 E3        30.21F
JONESVILLE*      N/A     90  66  45 N3        30.13F HX  92
ABINGDON*      PTSUNNY   89  63  41 S5        30.15F HX  90
BRISTOL        MOSUNNY   91  65  41 CALM      30.11F HX  93
MORRISTOWN*    PTCLDY    90  63  40 VRB7      30.09F HX  90
SEVIERVILLE*     N/A     91  64  40 E6        30.06F HX  93
KNOXVILLE      MOSUNNY   91  63  39 W3        30.07F HX  92
OAK RIDGE      SUNNY     92  64  39 MISG      30.09F HX  93
CROSSVILLE     MOSUNNY   84  66  54 MISG      30.15F
NASHVILLE      CLOUDY    92  67  43 VRB6      30.07F HX  95
$$

...KEY TO REMARKS...
VSB - VISIBILITY IN MILES
WCI - WIND CHILL INDEX
HX  - HEAT INDEX

$$




USA.gov is the U.S. government's official web portal to all federal, state and local government web resources and services.